CZ-3B DEB, 40851

Orbit data source: Space-Track

CZ-3B DEB, 40851 is space debris in HEO originally from a launch on Mon, 19 Dec 2011 UTC launched from the Xichang Space Center, China (XSC). Debris objects in space refer to the collection of defunct objects orbiting the Earth. Examples of debris include non-operational satellites, rocket bodies, and fragments generated from explosions, collisions, or faulty payload assembly.

Loading next visibility...
Identifier
40851, 2011-077AG
Orbit
HEO
Country
Flag of CNCN / PRC
Related business
Manufacturer
CALT
Mission
Spacecraft
Bus & Motor
Unknown
Mass
Unknown
Launch date (UTC)
2011-12-19 (15 years ago)
Launch vehicle
Unknown
Launch site
Xichang Space Center, China (XSC)
Object type
Payload
Rocket body
Debris
Shape & HBR
Unknown shape, 0.2 m
Radar Cross Section
Medium (>0.1 m² and <1 m²)

Expand to show TLE details & history
Last TLE update: 3 days ago

TLE from 3 days ago
0 CZ-3B DEB
1 40851U 11077AG  26250.64081158 -.00000184  00000-0 -11583-2 0  9997
2 40851  26.5837   1.1535 7359898  35.3163 355.9465  1.90204931 87793
Epoch: 2026-09-07T15:22Z
TLE epoch observation values (Epoch: 2026-09-07T15:22:46.120Z)
Latitude
-0.00016°
Longitude
143.74235°
Altitude
1,511.235 km
Speed
9.304 km/s
True Right ascension
00h 04m 36s
True Declination
0° 00' 01"
Sunlit
Object was in full shadow at epoch
Visualization orbit readout
Latitude
Unknown
Longitude
Unknown
Altitude
Unknown
Speed
Unknown
Apparent Right ascension
Unknown
Apparent Declination
Unknown
Sunlit
N/A
Visualization observer readout
Local Sidereal Time
15:11:48
Azimuth
Unknown
Elevation
Unknown
Doppler factor
Unknown
Orbital elements
Apogee altitude
41,395.876 km
Perigee altitude
887.359 km
Semi-major axis
27,519.755 km
Eccentricity
0.73599
Inclination
26.5837°
RAAN
1.1535°
Arg. of periapsis
35.3163°
True anomaly
322.95369°
Mean anomaly
355.9465°
Eccentric anomaly
345.11191°
Mean motion
0.47542 °/min
Orbital period
757.23 mins
BSTAR
-0.0011583
Loading maneuver chart data...
Computing Atmospheric mass density...
Loading historical data...
Loading historical data...
Loading historical data...
Loading historical data...
Loading historical data...
Loading historical data...
Loading historical data...

Documentation

Showing up to 5 results
|